Location: Dunedin
(45.8670°S, 170.5000°E)
Time: 23:55:34
(UTC+13:00)

USA 234 - Pass Details

Date: 24 January 2019
Orbit: 1103 x 1105 km, 123.0° (Epoch: 06 October)

Event Time Altitude Azimuth Distance (km) Brightness Sun altitude
Rises 21:46:30 0° 128° (SE) 3,955 6.0 -4.8°
Reaches altitude 10° 21:49:01 10° 131° (SE) 2,994 5.4 -5.2°
Maximum altitude 21:55:31 61° 209° (SSW) 1,252 4.0 -6.1°
Drops below altitude 10° 22:01:59 10° 287° (WNW) 2,978 6.1 -7.0°
Sets 22:04:29 0° 290° (WNW) 3,932 6.7 -7.3°
